Location: Borz?cin
(51.1714°N, 19.6030°E)
Time: 17:03:46
(UTC+00:00)

ARIANE 6 FM1 Upper Stage - Pass Details

Date: 19 May 2025
Orbit: 530 x 611 km, 62.0° (Epoch: 20 June)

Event Time Altitude Azimuth Distance (km) Brightness Sun altitude
Rises 20:19:49 0° 236° (SW) 2,665 6.1 -12.7°
Reaches altitude 10° 20:22:01 10° 240° (WSW) 1,779 5.3 -12.9°
Maximum altitude 20:25:58 61° 321° (NW) 609 3.1 -13.2°
Drops below altitude 10° 20:30:00 10° 43° (NE) 1,809 5.5 -13.5°
Sets 20:32:15 0° 47° (NE) 2,715 6.3 -13.7°
